Flag for Canada Weather past 2 weeks in Chatham-Kent, Ontario, Canada

Now
77 °F

Warm.


Feels Like: 79 °F
Forecast: 69 / 81 °F
Wind: 7 mph from Southwest

Location: Erieau

Current Time: Jul 29, 2015 at 9:06:31 PM

Latest Report: Jul 29, 2015 at 8:00 PM


Visibility: N/A

Pressure: 29.86 "Hg

Humidity: 90%

Dew point: 74 °F

Location of Chatham-KentLocation

Historic Weather in Chatham-Kent — Graph

°F

Chatham-Kent temperature yesterday

Maximum temperature yesterday: 82 °F (at 5:00 PM)
Minimum temperature yesterday: 74 °F (at 2:00 AM)
Average temperature yesterday: 78 °F

Past Weeks' High & Low Weather Summary

 TemperatureHumidityPressure
High84 °F (Jul 27, 7:00 PM)98% (Jul 19, 10:00 PM)30.11 "Hg (Jul 19, 10:00 PM)
Low59 °F (Jul 15, 8:00 AM)38% (Jul 22, 2:00 PM)29.54 "Hg (Jul 14, 8:00 PM)
Average72 °F76%29.91 "Hg
* Reported Jul 14 8:00 PM — Jul 29 8:00 PM, Chatham-Kent, Weather by CustomWeather, © 2015

Note: Actual official high and low records may vary slightly from our data, if they occured in-between our weather recording intervals... More about our weather records

Advertising

Chatham-Kent weather history for previous 24 hours

 ConditionsComfort  
Time TempWeatherWind HumidityBarometerVisibility
8:00 PM
Wed, Jul 29
77 °FWarm.7 mph90%29.86 "HgN/A
7:00 PM80 °FWarm.5 mph81%29.85 "HgN/A
6:00 PM80 °FWarm.No wind78%29.86 "HgN/A
5:00 PM83 °FWarm.2 mph72%29.87 "HgN/A
4:00 PM84 °FWarm.1 mph70%29.88 "HgN/A
3:00 PM84 °FWarm.1 mph71%29.90 "HgN/A
2:00 PM83 °FWarm.6 mph71%29.92 "HgN/A
1:00 PM82 °FWarm.3 mph75%29.92 "HgN/A
12:00 PM81 °FWarm.3 mph72%29.94 "HgN/A
11:00 AM81 °FWarm.5 mph70%29.95 "HgN/A
10:00 AM80 °FWarm.2 mph72%29.95 "HgN/A
9:00 AM78 °FWarm.1 mph78%29.96 "HgN/A
8:00 AM78 °FWarm.5 mph80%29.95 "HgN/A
7:00 AM74 °FMild.3 mph91%29.94 "HgN/A
6:00 AM76 °FMild.3 mph89%29.94 "HgN/A
5:00 AM76 °FMild.2 mph92%29.94 "HgN/A
4:00 AM76 °FMild.3 mph84%29.95 "HgN/A
3:00 AM76 °FMild.2 mph87%29.96 "HgN/A
2:00 AM76 °FMild.2 mph86%29.97 "HgN/A
1:00 AM77 °FMild.2 mph88%29.99 "HgN/A
12:00 AM78 °FWarm.2 mph85%29.99 "HgN/A
11:00 PM
Tue, Jul 28
76 °FMild.5 mph90%29.98 "HgN/A
10:00 PM78 °FWarm.2 mph76%29.96 "HgN/A
9:00 PM79 °FWarm.3 mph69%29.95 "HgN/A
Weather by CustomWeather, © 2015

See weather overviewHow to use our weather pages